FW5404 Weather Reports


Display with metric or nautical units.
time (UTC)temp
F
wind
direction
speed
MPH
gust
MPH
rain 1hr
in
rain 24hr
in
rain mn
in
humidity
%
barometer
mb
20260510173505 59 72 6.0 9.0 0.00 0.00 0.00 58 1023.3
20260510173006 59 84 6.0 9.0 0.00 0.00 0.00 57 1023.3
20260510172005 60 59 6.0 11.0 0.00 0.00 0.00 57 1023.3
20260510171505 60 85 7.0 12.0 0.00 0.00 0.00 56 1023.3
20260510171006 60 82 6.0 12.0 0.00 0.00 0.00 56 1023.3
20260510165506 61 74 7.0 13.0 0.00 0.00 0.00 55 1023.3
20260510164506 61 57 8.0 11.0 0.00 0.00 0.00 55 1023.3
20260510163505 60 70 9.0 14.0 0.00 0.00 0.00 56 1023.3
20260510163005 60 68 9.0 16.0 0.00 0.00 0.00 56 1023.3
20260510162505 60 60 10.0 16.0 0.00 0.00 0.00 56 1023.3
20260510161505 61 80 8.0 15.0 0.00 0.00 0.00 56 1023.3
20260510161005 61 80 7.0 12.0 0.00 0.00 0.00 56 1023.3
20260510160505 61 80 8.0 12.0 0.00 0.00 0.00 56 1023.3
20260510160007 60 62 8.0 11.0 0.00 0.00 0.00 58 1023.3
20260510155505 60 56 8.0 12.0 0.00 0.00 0.00 59 1023.3
20260510154505 60 49 8.0 12.0 0.00 0.00 0.00 59 1023.3
20260510154005 60 52 6.0 9.0 0.00 0.00 0.00 59 1023.3
20260510153505 60 66 6.0 10.0 0.00 0.00 0.00 59 1023.3
20260510152505 60 75 6.0 13.0 0.00 0.00 0.00 59 1023.3
20260510152005 60 72 7.0 13.0 0.00 0.00 0.00 59 1023.3
20260510151505 60 70 7.0 11.0 0.00 0.00 0.00 59 1024.4
20260510150505 60 65 7.0 13.0 0.00 0.00 0.00 57 1024.4
20260510150007 61 67 7.0 13.0 0.00 0.00 0.00 57 1024.4
20260510145505 61 66 6.0 11.0 0.00 0.00 0.00 57 1024.4
20260510145005 61 61 8.0 13.0 0.00 0.00 0.00 57 1024.4
20260510143505 62 72 9.0 15.0 0.00 0.00 0.00 56 1024.4
20260510143005 62 64 10.0 15.0 0.00 0.00 0.00 55 1024.4
20260510142504 63 51 10.0 13.0 0.00 0.00 0.00 55 1024.4
20260510142006 63 60 9.0 13.0 0.00 0.00 0.00 55 1024.4
20260510141506 63 70 8.0 13.0 0.00 0.00 0.00 54 1024.4
20260510141005 63 82 8.0 13.0 0.00 0.00 0.00 53 1024.4
20260510140505 64 73 8.0 11.0 0.00 0.00 0.00 53 1024.4
20260510140008 64 65 8.0 13.0 0.00 0.00 0.00 53 1024.4
20260510135505 63 66 8.0 13.0 0.00 0.00 0.00 53 1024.4
20260510134505 62 47 8.0 13.0 0.00 0.00 0.00 56 1024.4
20260510134005 62 62 8.0 13.0 0.00 0.00 0.00 57 1024.4
20260510133505 62 72 7.0 12.0 0.00 0.00 0.00 57 1024.4
20260510133005 62 71 7.0 9.0 0.00 0.00 0.00 57 1024.4
20260510132005 61 76 7.0 11.0 0.00 0.00 0.00 58 1024.4
20260510131505 61 68 9.0 12.0 0.00 0.00 0.00 58 1024.4
20260510130007 61 47 9.0 15.0 0.00 0.00 0.00 58 1024.4
20260510125005 62 69 11.0 15.0 0.00 0.00 0.00 56 1024.4
20260510124505 62 57 11.0 15.0 0.00 0.00 0.00 55 1024.4
20260510124005 63 44 10.0 13.0 0.00 0.00 0.00 56 1024.4
20260510123005 64 84 10.0 13.0 0.00 0.00 0.00 53 1024.4
20260510122504 65 100 10.0 13.0 0.00 0.00 0.00 51 1024.4
20260510122005 66 74 9.0 13.0 0.00 0.00 0.00 50 1024.4
20260510121505 67 63 9.0 14.0 0.00 0.00 0.00 49 1024.4
20260510121006 67 71 10.0 14.0 0.00 0.00 0.00 50 1024.4
20260510120504 67 90 6.0 6.0 0.00 0.00 0.00 49 1024.4
20260510120007 66 22 11.0 11.0 0.00 0.00 0.00 50 1024.4
20260510115005 65 22 11.0 11.0 0.00 0.00 0.00 52 1024.4
20260510114505 66 32 12.0 16.0 0.00 0.00 0.00 49 1024.4
20260510113505 67 56 13.0 16.0 0.00 0.00 0.00 48 1024.4
20260510113006 67 66 12.0 17.0 0.00 0.00 0.00 48 1024.4
20260510112505 66 76 12.0 17.0 0.00 0.00 0.00 50 1024.4
20260510112006 65 83 13.0 19.0 0.00 0.00 0.00 50 1024.4
20260510111505 66 72 16.0 19.0 0.00 0.00 0.00 51 1024.4
20260510111006 65 45 13.0 13.0 0.00 0.00 0.00 50 1024.4
20260510110505 66 66 15.0 20.0 0.00 0.00 0.00 50 1024.4
20260510110007 66 73 14.0 20.0 0.00 0.00 0.00 49 1024.4
20260510104505 65 65 12.0 14.0 0.00 0.00 0.00 52 1024.4
20260510104005 65 83 9.0 11.0 0.00 0.00 0.00 51 1024.4
20260510103505 65 83 9.0 11.0 0.00 0.00 0.00 51 1024.4
20260510102505 64 158 6.0 6.0 0.00 0.00 0.00 53 1024.4
20260510102004 64 158 6.0 6.0 0.00 0.00 0.00 53 1024.4
20260510101505 63 45 6.0 6.0 0.00 0.00 0.00 53 1024.4
20260510101005 63 45 6.0 6.0 0.00 0.00 0.00 54 1024.4
20260510100008 62 45 6.0 6.0 0.00 0.00 0.00 56 1024.4
20260510095505 62 64 8.0 14.0 0.00 0.00 0.00 57 1024.4
20260510094005 62 99 9.0 11.0 0.00 0.00 0.00 57 1024.4
20260510093005 62 68 14.0 14.0 0.00 0.00 0.00 56 1024.4
20260510092505 62 68 14.0 14.0 0.00 0.00 0.00 55 1024.4
20260510092005 62 68 14.0 14.0 0.00 0.00 0.00 55 1024.4
20260510091505 62 47 12.0 14.0 0.00 0.00 0.00 54 1024.4
20260510090504 62 60 13.0 18.0 0.00 0.00 0.00 54 1024.4
20260510085504 62 91 13.0 18.0 0.00 0.00 0.00 54 1024.4
20260510085005 62 108 15.0 21.0 0.00 0.00 0.00 55 1024.4
20260510084504 62 100 15.0 21.0 0.00 0.00 0.00 55 1024.4
20260510084004 61 68 11.0 17.0 0.00 0.00 0.00 56 1024.4
20260510083004 60 86 10.0 14.0 0.00 0.00 0.00 59 1024.4
20260510082505 60 90 8.0 14.0 0.00 0.00 0.00 58 1024.4
20260510082005 60 99 7.0 9.0 0.00 0.00 0.00 58 1024.4
20260510081504 60 90 7.0 7.0 0.00 0.00 0.00 57 1025.4
20260510081005 60 99 8.0 11.0 0.00 0.00 0.00 58 1025.4
20260510080505 61 107 10.0 11.0 0.00 0.00 0.00 56 1025.4
20260510075504 61 107 12.0 13.0 0.00 0.00 0.00 56 1025.4
20260510074505 60 73 15.0 19.0 0.00 0.00 0.00 58 1025.4
20260510073004 58 97 13.0 16.0 0.00 0.00 0.00 61 1024.4
20260510072504 59 112 16.0 16.0 0.00 0.00 0.00 58 1024.4
20260510071005 60 90 10.0 11.0 0.00 0.00 0.00 58 1024.4
20260510070504 59 79 11.0 14.0 0.00 0.00 0.00 59 1024.4
20260510070006 59 76 11.0 14.0 0.00 0.00 0.00 59 1024.4
20260510065504 59 48 9.0 14.0 0.00 0.00 0.00 59 1024.4
20260510065004 59 59 9.0 12.0 0.00 0.00 0.00 60 1024.4
20260510064505 59 90 10.0 12.0 0.00 0.00 0.00 60 1024.4
20260510064005 59 86 9.0 12.0 0.00 0.00 0.00 60 1024.4
20260510063505 58 53 7.0 8.0 0.00 0.00 0.00 59 1024.4
20260510063005 59 57 7.0 8.0 0.00 0.00 0.00 59 1024.4
20260510062504 59 68 6.0 6.0 0.00 0.00 0.00 59 1024.4
20260510062004 58 80 7.0 9.0 0.00 0.00 0.00 59 1024.4
20260510061004 58 81 7.0 9.0 0.00 0.00 0.00 60 1024.4
20260510060505 58 68 7.0 7.0 0.00 0.00 0.00 61 1024.4
20260510060006 56 68 9.0 9.0 0.00 0.00 0.00 63 1024.4
20260510055505 56 68 9.0 9.0 0.00 0.00 0.00 66 1024.4
20260510054504 51 68 9.0 9.0 0.00 0.00 0.00 76 1024.4
20260510054004 51 68 9.0 9.0 0.00 0.00 0.00 76 1024.4
20260510053505 51 68 9.0 9.0 0.00 0.00 0.00 76 1024.4
20260510053004 51 68 9.0 9.0 0.00 0.00 0.00 77 1024.4
20260510052504 51 68 9.0 9.0 0.00 0.00 0.00 77 1024.4
20260510052004 51 68 9.0 9.0 0.00 0.00 0.00 78 1024.4
20260510051504 51 68 9.0 9.0 0.00 0.00 0.00 78 1024.4
20260510051005 51 68 9.0 9.0 0.00 0.00 0.00 78 1024.4
20260510050505 52 68 9.0 9.0 0.00 0.00 0.00 79 1024.4
20260510050007 51 68 9.0 9.0 0.00 0.00 0.00 79 1024.4
20260510045005 52 78 9.0 9.0 0.00 0.00 0.00 80 1024.4
20260510044505 52 89 9.0 9.0 0.00 0.00 0.00 80 1024.4
20260510044004 52 68 8.0 8.0 0.00 0.00 0.00 80 1024.4
20260510043506 52 68 8.0 8.0 0.00 0.00 0.00 80 1024.4
20260510042504 52 68 8.0 8.0 0.00 0.00 0.00 80 1024.4
20260510042005 52 87 7.0 9.0 0.00 0.00 0.00 80 1024.4
20260510041504 52 95 7.0 9.0 0.00 0.00 0.00 80 1024.4
20260510041005 52 99 6.0 7.0 0.00 0.00 0.00 79 1024.4
20260510040506 53 86 7.0 9.0 0.00 0.00 0.00 79 1024.4
20260510040006 53 80 7.0 9.0 0.00 0.00 0.00 79 1024.4
20260510035504 53 69 7.0 13.0 0.00 0.00 0.00 79 1024.4
20260510035004 53 66 7.0 13.0 0.00 0.00 0.00 79 1024.4
20260510034504 53 88 8.0 11.0 0.00 0.00 0.00 79 1024.4
20260510034004 53 98 9.0 11.0 0.00 0.00 0.00 78 1024.4
20260510033504 53 94 9.0 11.0 0.00 0.00 0.00 78 1024.4
20260510033005 54 103 6.0 7.0 0.00 0.00 0.00 78 1024.4
20260510032505 54 103 6.0 7.0 0.00 0.00 0.00 78 1024.4
20260510032004 54 100 5.0 7.0 0.00 0.00 0.00 78 1024.4
20260510031504 54 68 3.0 3.0 0.00 0.00 0.00 77 1024.4
20260510031004 54 55 4.0 6.0 0.00 0.00 0.00 78 1024.4
20260510025504 54 158 1.0 1.0 0.00 0.00 0.00 78 1024.4
20260510025004 55 68 1.0 1.0 0.00 0.00 0.00 78 1024.4
20260510024504 55 68 1.0 1.0 0.00 0.00 0.00 78 1024.4
20260510024005 55 68 2.0 3.0 0.00 0.00 0.00 78 1024.4
20260510023504 55 72 3.0 3.0 0.00 0.00 0.00 78 1024.4
20260510023005 55 61 3.0 3.0 0.00 0.00 0.00 78 1024.4
20260510022505 55 54 2.0 3.0 0.00 0.00 0.00 79 1024.4
20260510022004 55 47 2.0 3.0 0.00 0.00 0.00 79 1024.4
20260510021504 55 47 2.0 3.0 0.00 0.00 0.00 79 1024.4
20260510021004 55 74 4.0 5.0 0.00 0.00 0.00 79 1024.4
20260510020504 55 53 4.0 8.0 0.00 0.00 0.00 80 1024.4
20260510020006 55 53 4.0 8.0 0.00 0.00 0.00 80 1024.4
20260510015504 56 34 5.0 8.0 0.00 0.00 0.00 81 1024.4
20260510015004 56 49 5.0 8.0 0.00 0.00 0.00 81 1024.4
20260510014504 56 68 4.0 5.0 0.00 0.00 0.00 81 1024.4
20260510014004 56 50 5.0 7.0 0.00 0.00 0.00 81 1024.4
20260510012505 56 93 8.0 9.0 0.00 0.00 0.00 82 1024.4
20260510012004 56 86 6.0 9.0 0.00 0.00 0.00 82 1024.4
20260510011504 56 81 6.0 9.0 0.00 0.00 0.00 81 1024.4
20260510011004 56 77 8.0 10.0 0.00 0.00 0.00 81 1024.4
20260510010504 56 72 9.0 10.0 0.00 0.00 0.00 81 1024.4
20260510010006 57 67 8.0 11.0 0.00 0.00 0.00 81 1024.4
20260510005504 57 72 7.0 11.0 0.00 0.00 0.00 80 1024.4
20260510005004 57 97 5.0 11.0 0.00 0.00 0.00 80 1024.4
20260510004504 57 112 7.0 10.0 0.00 0.00 0.00 80 1024.4
20260510004004 57 96 8.0 10.0 0.00 0.00 0.00 80 1024.4
20260510003505 57 83 8.0 10.0 0.00 0.00 0.00 80 1024.4
20260510003005 57 68 7.0 9.0 0.00 0.00 0.00 80 1024.4
20260510002504 57 77 7.0 9.0 0.00 0.00 0.00 80 1024.4
20260510002004 57 78 7.0 9.0 0.00 0.00 0.00 80 1024.4
20260510001504 57 112 5.0 5.0 0.00 0.00 0.00 79 1024.4
20260510001004 58 111 4.0 4.0 0.00 0.00 0.00 79 1024.4
20260510000505 57 111 4.0 4.0 0.00 0.00 0.00 79 1024.4
20260510000006 57 111 4.0 4.0 0.00 0.00 0.00 79 1025.4
20260509235504 57 111 4.0 4.0 0.00 0.00 0.00 80 1025.4
20260509235004 57 111 4.0 4.0 0.00 0.00 0.00 80 1025.4
20260509234004 58 94 5.0 10.0 0.00 0.00 0.00 80 1025.4
20260509233504 58 68 8.0 10.0 0.00 0.00 0.00 80 1025.4
20260509233004 58 68 6.0 8.0 0.00 0.00 0.00 80 1025.4
20260509232504 58 68 6.0 8.0 0.00 0.00 0.00 81 1025.4
20260509232005 58 68 5.0 5.0 0.00 0.00 0.00 81 1025.4
20260509231004 58 68 6.0 6.0 0.00 0.00 0.00 80 1025.4
20260509230504 58 68 6.0 6.0 0.00 0.00 0.00 81 1025.4
20260509230010 58 68 6.0 6.0 0.00 0.00 0.00 81 1025.4
20260509225504 58 68 6.0 6.0 0.00 0.00 0.00 81 1025.4
20260509225004 58 1 4.0 4.0 0.00 0.00 0.00 81 1025.4
20260509224504 58 1 4.0 4.0 0.00 0.00 0.00 81 1025.4
20260509224005 58 1 4.0 4.0 0.00 0.00 0.00 81 1025.4
20260509223505 58 1 4.0 4.0 0.00 0.00 0.00 82 1025.4
20260509223004 58 1 4.0 4.0 0.00 0.00 0.00 82 1025.4
20260509222506 58 1 4.0 4.0 0.00 0.00 0.00 82 1025.4
20260509222006 58 1 4.0 4.0 0.00 0.00 0.00 82 1025.4
20260509221504 58 1 4.0 4.0 0.00 0.00 0.00 82 1025.4
20260509221004 58 1 4.0 4.0 0.00 0.00 0.00 82 1025.4
20260509220504 58 1 4.0 4.0 0.00 0.00 0.00 81 1025.4
20260509220006 58 1 4.0 4.0 0.00 0.00 0.00 81 1025.4
20260509215504 58 1 4.0 4.0 0.00 0.00 0.00 81 1025.4
20260509215004 58 1 4.0 4.0 0.00 0.00 0.00 81 1025.4
20260509214505 58 1 4.0 4.0 0.00 0.00 0.00 80 1025.4
20260509214005 58 1 4.0 4.0 0.00 0.00 0.00 80 1025.4
20260509212504 58 1 4.0 4.0 0.00 0.00 0.00 80 1025.4
20260509212003 58 1 4.0 4.0 0.00 0.00 0.00 80 1025.4
20260509211005 58 1 4.0 4.0 0.00 0.00 0.00 81 1025.4
20260509210505 58 1 4.0 4.0 0.00 0.00 0.00 80 1025.4
20260509210008 58 1 4.0 4.0 0.00 0.00 0.00 80 1025.4
20260509205504 58 47 6.0 8.0 0.00 0.00 0.00 80 1025.4
20260509205005 58 47 6.0 8.0 0.00 0.00 0.00 80 1025.4
20260509204504 58 68 6.0 6.0 0.00 0.00 0.00 79 1025.4
20260509204005 58 58 5.0 6.0 0.00 0.00 0.00 79 1025.4
20260509203504 59 72 5.0 6.0 0.00 0.00 0.00 79 1025.4
20260509202504 59 49 7.0 9.0 0.00 0.00 0.00 79 1025.4
20260509202004 59 28 9.0 9.0 0.00 0.00 0.00 79 1025.4
20260509201504 59 23 9.0 9.0 0.00 0.00 0.00 78 1025.4
20260509200504 59 25 9.0 10.0 0.00 0.00 0.00 78 1025.4
20260509200006 59 48 8.0 10.0 0.00 0.00 0.00 78 1025.4
20260509195505 60 64 7.0 7.0 0.00 0.00 0.00 78 1025.4
20260509195004 60 68 7.0 7.0 0.00 0.00 0.00 78 1025.4
20260509194504 60 68 6.0 7.0 0.00 0.00 0.00 77 1025.4
20260509193504 60 68 10.0 10.0 0.00 0.00 0.00 76 1025.4
20260509193004 61 68 9.0 10.0 0.00 0.00 0.00 74 1025.4
20260509192004 61 40 5.0 9.0 0.00 0.00 0.00 73 1025.4
20260509191504 61 41 7.0 11.0 0.00 0.00 0.00 72 1025.4
20260509191005 62 51 7.0 11.0 0.00 0.00 0.00 71 1025.4
20260509190504 62 31 6.0 6.0 0.00 0.00 0.00 69 1025.4
20260509190006 62 31 6.0 6.0 0.00 0.00 0.00 69 1025.4
20260509185004 62 68 9.0 9.0 0.00 0.00 0.00 68 1025.4
20260509184504 63 68 9.0 9.0 0.00 0.00 0.00 67 1025.4
20260509184005 63 68 9.0 9.0 0.00 0.00 0.00 67 1025.4
20260509183506 63 68 9.0 9.0 0.00 0.00 0.00 67 1025.4
20260509183006 63 68 9.0 9.0 0.00 0.00 0.00 66 1024.4
20260509182506 63 68 9.0 9.0 0.00 0.00 0.00 65 1024.4
20260509182006 64 68 9.0 9.0 0.00 0.00 0.00 65 1024.4
20260509181505 64 68 9.0 9.0 0.00 0.00 0.00 64 1024.4
20260509181006 64 68 9.0 9.0 0.00 0.00 0.00 64 1024.4
20260509180505 64 68 9.0 9.0 0.00 0.00 0.00 63 1024.4
20260509180008 65 68 9.0 9.0 0.00 0.00 0.00 62 1024.4
20260509175505 65 68 9.0 9.0 0.00 0.00 0.00 62 1024.4
20260509175006 65 68 9.0 9.0 0.00 0.00 0.00 62 1024.4
20260509174506 64 68 9.0 9.0 0.00 0.00 0.00 62 1024.4